Regional Weather Roundup
Issued by NWS

Home | Current Version | Previous Version | Graphics & Text | Print | Product List | Glossary On
Versions: 1 2 3 4 5 6 7 8 9 10 11 12 13 14 15 16 17 18 19 20 21 22 23 24 25 26 27 28 29 30 31 32 33 34 35 36 37 38 39 40 41 42 43 44 45 46 47 48 49 50
000
ASUS43 KDTX 292310
RWRMI
MICHIGAN HOURLY REGIONAL WEATHER ROUNDUP
NATIONAL WEATHER SERVICE DETROIT/PONTIAC MI
700 PM EDT TUE JUL 29 2014

NOTE: "FAIR" INDICATES FEW OR NO CLOUDS BELOW 12,000 FEET WITH NO
SIGNIFICANT WEATHER AND/OR OBSTRUCTION TO VISIBILITY.

MIZ047>049-052>055-059>063-066>070-074>076-081>083-300000-
SOUTHEAST LOWER MICHIGAN

CITY           SKY/WX    TMP DP  RH WIND       PRES   REMARKS
ADRIAN         MOSUNNY   71  55  56 W8        29.98S
ALMA           PTSUNNY   66  60  80 CALM      29.94S
ANN ARBOR      LGT RAIN  67  55  65 W10       29.98R
BAD AXE        MOSUNNY   70  58  66 W8        29.93R
DETROIT CITY   CLOUDY    65  56  72 S3        29.96R
DETROIT        LGT RAIN  69  56  62 W14G21    29.97R
FLINT          CLOUDY    68  59  73 NW5       29.96R
GROSSE ILE     PTSUNNY   72  55  56 W12       29.95S
HILLSDALE      MOSUNNY   70  59  66 W5        29.98F
HOWELL         CLOUDY    65  58  77 S6        29.97S

CITY           SKY/WX    TMP DP  RH WIND       PRES   REMARKS
JACKSON        PTSUNNY   69  59  70 W8        29.97R
LAMBERTVILLE   PTSUNNY   72  54  53 SW6       29.98S
LANSING        CLOUDY    67  58  72 CALM      29.96S
LAPEER         NOT AVBL
MASON          CLOUDY    69  57  64 W5        29.96S
MONROE         PTSUNNY   72  55  56 W6        29.96S
MT. CLEMENS    PTSUNNY   68  53  57 W10       29.94R
PONTIAC        CLOUDY    62  58  86 SW3       29.96F
PORT HOPE        N/A     66  59  78 E9        29.90S
PORT HURON     PTSUNNY   68  59  73 CALM      29.94F
TRI CITIES     PTSUNNY   66  60  81 SW7       29.94F
YPSILANTI      LGT RAIN  72  56  57 W15       29.97R
$$
MIZ043>046-050>051-056>058-064>065-071>073-077>080-300000-
SOUTHWEST LOWER MICHIGAN

CITY           SKY/WX    TMP DP  RH WIND       PRES   REMARKS
BATTLE CREEK   SUNNY     71  54  54 W13       29.99S
BENTON HARBOR  SUNNY     69  55  60 W5        29.99F
BIG RAPIDS     SUNNY     69  53  56 NW7       29.95S
COLDWATER      SUNNY     71  62  72 W6        29.98S
HOLLAND        SUNNY     69  58  67 W7        30.00S
GRAND RAPIDS   MOSUNNY   72  53  51 NW14      29.97F
KALAMAZOO      SUNNY     71  54  54 NW12      29.99S
MARSHALL       SUNNY     70  56  61 NW8G16    29.97S
MUSKEGON       MOSUNNY   65  54  67 SW7       29.98F
$$
MIZ016>042-300000-
NORTHERN LOWER MICHIGAN

CITY           SKY/WX    TMP DP  RH WIND       PRES   REMARKS
ALPENA         PTSUNNY   72  52  49 N8        29.91R
BEAVER ISLAND  SUNNY     65  59  80 W9        29.95R
BELLAIRE       SUNNY     66  56  69 NW3       29.95R
CADILLAC       SUNNY     66  56  71 W9        29.96S
CHARLEVOIX     SUNNY     65  58  76 W10       29.98R
FRANKFORT      PTCLDY    68  55  62 NW6       29.95F
GAYLORD        MOSUNNY   64  52  64 VRB7      29.95R
GRAYLING       SUNNY     69  52  55 NW8       29.96R
HARBOR SPRINGS SUNNY     64  59  82 SW7       29.94S
HOUGHTON LAKE  SUNNY     68  53  58 NW10      29.95R
MANISTEE       MOSUNNY   68  54  60 W7        29.97F
OSCODA         SUNNY     69  59  70 NE8       29.90R
PELLSTON       SUNNY     68  55  63 W12       29.93R
TRAVERSE CITY  MOSUNNY   68  55  63 N8        29.94S
$$
MIZ007>008-015-300000-
EASTERN UPPER MICHIGAN

CITY           SKY/WX    TMP DP  RH WIND       PRES   REMARKS
KINROSS        MOSUNNY   57  54  88 NW13      29.94R
MACKINAC ISLAN SUNNY     65  57  75 W6        29.91S
NEWBERRY       MOSUNNY   64  50  60 NW9G17    29.94S
S. S. MARIE    MOSUNNY   57  49  74 NW12      29.93R
$$
MIZ004>006-011>014-085-300000-
CENTRAL UPPER MICHIGAN

CITY           SKY/WX    TMP DP  RH WIND       PRES   REMARKS
MANISTIQUE     MOSUNNY   64  54  69 N9        29.95R
ESCANABA       PTSUNNY   63  57  82 SE6       29.96R THUNDER
MENOMINEE      MOSUNNY   70  55  60 S6        29.94S
SAWYER-GWINN   SUNNY     63  57  82 NE9       29.97S
$$
MIZ001>003-009>011-084-300000-
WESTERN UPPER MICHIGAN

CITY           SKY/WX    TMP DP  RH WIND       PRES   REMARKS
IRON MOUNTAIN  MOSUNNY   73  52  47 NW10      29.95S
HOUGHTON       MOSUNNY   61  54  77 NW17      29.98S
COPPER HARBOR    N/A     64  56  75 N16       29.96F
$$

ABBREVIATIONS USED IN REMARKS
   TC - TEMPERATURE IN CELSIUS
  WCI - WIND CHILL INDEX
   HX - HEAT INDEX
  VSB - VISIBILITY




USA.gov is the U.S. government's official web portal to all federal, state and local government web resources and services.